Probability
0 0 0 1 0 0 0 0 0 0 0 0 0 0 0 0 0 0 0 1 3 6 9 13 16 17 14 12 10 9 8 7 4 4 6 8 9 11 12 11 10 10 11 12 11 11 10 9 7
0 0 0 1 0 0 0 0 1 1 0 0 0 0 0 0 0 1 1 2 3 6 9 13 17 18 17 14 13 12 11 9 6 5 6 7 8 10 12 12 11 11 11 11 12 12 12 11 10
0 0 0 0 0 0 0 1 2 2 1 0 0 0 0 1 1 2 3 4 4 6 10 15 19 21 21 18 16 15 15 13 10 8 8 7 8 10 12 13 13 13 11 11 12 12 13 14 14
0 0 0 0 0 0 1 2 2 2 1 0 0 0 1 2 3 3 5 5 4 5 9 16 21 23 23 21 19 18 17 17 15 13 11 11 10 10 11 13 14 15 14 13 13 13 14 15 16
0 0 0 0 0 0 1 2 1 1 0 0 0 1 2 3 4 4 4 4 4 5 8 15 21 23 23 23 22 21 19 17 17 16 14 13 13 11 10 12 14 16 16 16 16 17 17 16 17
0 0 0 0 0 1 2 2 1 0 0 0 0 1 2 5 7 6 5 5 6 7 10 14 17 19 21 22 22 21 18 15 15 15 13 12 12 11 10 12 14 16 15 14 14 16 18 18 18
0 0 0 0 0 1 2 3 2 1 0 0 0 0 2 7 11 10 8 8 9 10 12 13 12 12 16 19 21 21 18 15 14 13 11 9 9 9 9 10 12 13 13 12 11 12 14 17 18
0 1 1 1 0 1 2 3 2 1 0 0 1 2 5 10 13 13 12 12 13 14 15 13 9 7 10 15 18 19 19 17 15 13 10 7 7 7 7 9 11 12 13 13 12 11 12 14 15
0 1 1 1 0 1 1 1 1 0 0 1 2 4 8 12 13 14 14 14 15 15 15 14 10 8 9 12 15 15 16 17 15 12 8 6 5 5 6 8 10 12 12 13 13 12 12 11 12
1 1 1 0 0 0 0 0 0 0 0 2 3 5 7 10 11 13 13 13 15 16 14 13 12 11 11 14 16 15 14 14 11 7 5 4 4 5 5 8 10 11 11 11 11 12 11 11 11
1 1 1 0 0 0 0 0 0 1 1 2 3 4 6 8 10 13 13 14 16 16 14 11 11 12 14 16 18 17 15 13 9 5 3 4 5 6 6 7 9 10 11 11 12 13 12 11 11
2 1 0 0 0 0 0 0 0 1 2 3 3 5 7 10 14 16 17 17 17 16 13 10 9 11 15 17 18 17 15 13 9 6 6 7 7 8 9 9 9 10 11 12 14 14 13 12 12
2 1 0 0 0 0 0 0 0 1 2 4 5 8 12 15 19 21 20 18 17 15 12 10 9 12 14 17 18 17 14 11 8 8 9 10 10 10 11 12 12 11 11 11 12 12 12 13 13
3 2 1 0 0 0 1 1 1 2 3 5 8 12 16 19 20 21 22 21 19 16 13 11 11 12 13 14 17 16 13 10 9 9 10 11 12 12 12 13 13 12 11 11 11 11 12 13 13
3 2 1 0 0 0 1 2 3 4 6 8 11 15 19 21 19 19 21 21 20 17 14 11 11 11 11 12 13 13 12 12 11 11 11 11 13 12 11 11 13 14 14 13 13 12 12 12 12
3 2 0 0 0 0 1 2 4 6 9 12 14 16 20 21 18 16 17 19 19 16 14 11 10 10 10 11 11 12 13 13 13 12 12 12 12 13 12 12 15 16 16 15 14 12 11 10 10
3 2 0 0 0 0 2 3 4 5 9 12 13 14 17 19 17 14 14 14 14 14 14 13 12 11 11 11 11 12 15 14 12 11 11 12 13 13 13 14 15 15 15 14 12 10 9 8 9
2 1 1 1 0 1 3 5 5 5 6 8 10 11 12 14 14 12 10 10 11 13 14 14 14 13 13 12 11 13 15 14 11 9 9 10 11 13 13 13 14 13 12 12 9 8 7 7 7
1 1 2 2 1 3 5 5 5 5 4 6 9 11 9 9 10 9 7 7 10 14 16 15 15 15 14 13 12 13 14 13 10 8 7 7 8 10 11 12 13 11 11 11 10 7 6 5 5
2 2 3 3 2 3 5 5 4 4 3 4 8 10 8 8 8 7 6 7 11 16 17 15 14 15 14 13 13 13 13 12 9 7 6 5 6 7 9 10 11 10 10 10 10 8 6 4 4
3 2 3 3 2 2 3 4 3 3 2 3 6 8 8 9 10 9 9 10 12 15 16 15 14 13 13 13 12 11 11 9 8 7 7 6 5 5 6 6 9 10 10 8 8 7 5 3 2
2 2 2 2 2 2 2 2 2 2 2 2 4 7 8 10 12 12 12 12 11 12 14 14 14 12 12 12 12 10 8 6 6 7 8 8 6 4 4 5 8 11 9 7 5 4 3 3 3
2 1 1 1 2 2 2 2 1 1 2 2 4 6 9 10 12 13 12 10 9 10 13 14 12 10 9 9 10 8 5 4 5 7 8 7 6 5 4 5 8 9 8 6 4 2 2 3 4
1 0 0 1 1 1 1 1 2 2 3 2 2 5 8 11 13 12 11 9 9 10 12 11 9 6 6 6 6 6 4 2 4 6 6 6 6 6 5 6 8 8 6 5 4 3 3 4 4
0 0 0 1 1 0 0 1 3 3 2 1 1 3 7 11 14 13 12 11 10 9 9 8 6 4 3 3 3 3 2 2 3 3 4 5 5 6 5 6 7 7 5 4 4 3 3 4 4
0 0 0 0 0 0 0 1 2 1 1 0 1 3 6 11 15 15 14 11 9 8 7 6 4 2 1 1 1 1 1 1 2 2 3 4 5 5 5 5 4 4 4 4 4 3 3 3 3
0 0 0 0 0 0 0 1 1 0 0 0 2 4 6 9 13 16 15 11 8 7 6 6 4 2 1 1 0 0 0 1 1 0 1 4 5 5 5 4 3 3 3 3 3 2 3 3 3
0 0 0 0 0 0 0 1 1 1 1 0 1 4 6 8 11 15 14 11 8 7 6 5 4 3 3 2 1 0 0 0 0 0 1 3 4 4 4 3 3 3 3 3 2 2 3 3 3
0 0 0 0 0 0 0 0 1 1 1 0 1 3 5 8 11 13 13 10 7 5 4 3 3 3 4 3 2 0 0 0 0 1 2 3 3 3 3 3 3 3 3 3 2 1 2 3 3
0 0 0 0 0 0 0 0 0 1 1 0 1 3 6 9 11 12 11 9 6 4 4 3 3 3 4 3 1 0 0 0 0 1 2 3 3 2 3 3 3 3 3 3 2 1 1 3 3
Wind_Speed
8 8 7 6 8 4 3 5 3 3 3 4 3 2 3 5 4 6 6 7 7 10 12 13 10 10 9 8 8 8 8 9 9 9 9 9 9 9 8 8 8 8 7 7 7 8 8 7 7
6 6 7 7 6 2 5 4 4 4 3 2 2 2 3 5 6 6 7 7 8 10 11 11 12 10 10 9 8 9 9 9 9 8 8 8 7 7 7 7 7 7 7 7 7 8 8 7 6
6 7 7 5 2 2 5 5 4 4 3 1 2 3 4 5 5 5 7 9 9 10 10 12 11 10 9 9 8 8 8 8 8 8 8 7 6 6 6 6 6 6 6 6 6 7 7 7 7
6 7 6 5 1 2 3 3 2 2 3 2 3 5 5 5 4 7 10 9 9 10 10 13 10 10 9 8 8 8 8 7 7 7 6 6 6 5 5 5 6 6 6 6 6 6 6 7 7
7 6 6 4 2 2 1 1 1 1 2 3 3 5 6 6 6 10 10 10 9 10 9 12 10 9 9 9 8 8 7 7 6 6 6 5 5 5 5 5 5 5 5 5 5 6 6 6 7
6 6 5 3 3 3 3 2 2 1 3 3 3 5 6 6 8 9 9 9 9 9 9 11 11 9 8 8 7 7 6 6 6 5 4 4 4 4 4 5 5 5 5 5 5 6 7 7 7
7 5 4 2 2 3 3 1 2 1 2 3 2 4 6 8 8 8 9 9 9 8 9 9 9 9 9 8 7 6 6 5 4 4 4 3 3 4 4 4 4 4 5 6 6 6 6 7 7
6 6 5 3 2 3 4 2 0 1 2 3 1 2 5 9 10 9 9 8 9 8 7 7 6 7 7 8 8 6 5 4 4 4 3 3 4 5 4 5 4 4 4 4 5 6 6 6 7
7 7 3 1 1 2 3 2 1 0 2 3 2 4 7 12 11 10 9 8 8 7 6 5 5 5 4 5 7 6 6 5 4 5 4 4 3 3 5 3 2 3 4 5 5 5 6 8 8
7 6 1 2 2 1 1 2 1 3 4 5 5 7 9 10 10 9 9 8 8 7 6 5 4 4 4 3 4 3 3 3 2 1 1 2 1 2 2 3 3 4 5 6 6 6 8 10 7
6 5 2 2 2 3 2 2 2 4 3 3 4 8 9 10 9 8 7 7 6 6 5 5 4 3 2 2 2 1 1 1 1 1 1 1 2 1 2 1 3 4 6 5 5 7 6 6 4
6 4 5 4 3 4 3 2 2 2 1 2 3 8 10 10 8 7 7 6 6 5 5 4 4 3 2 1 1 1 1 0 1 1 2 1 1 1 1 2 2 3 2 3 4 3 4 5 6
8 4 3 3 3 3 3 3 2 1 3 4 5 8 8 8 7 6 6 6 6 5 4 4 3 2 1 1 1 1 1 1 1 2 2 2 2 2 1 2 2 4 3 4 4 4 4 5 6
3 4 5 4 3 3 3 3 3 1 3 5 7 7 7 7 7 7 6 5 5 4 4 3 3 2 2 1 1 1 1 1 2 2 1 3 3 2 2 3 2 3 3 3 4 4 4 5 4
4 6 6 4 4 3 4 5 3 1 4 6 7 7 7 6 6 5 5 4 4 4 3 3 3 2 1 1 1 1 1 2 2 1 2 3 3 2 3 3 3 3 3 3 4 4 4 5 5
8 8 7 4 3 3 7 3 3 3 6 6 6 7 6 6 5 5 5 4 4 3 3 2 1 2 2 1 2 2 1 2 2 2 2 2 3 3 3 3 3 3 3 3 3 4 4 4 5
9 7 4 4 4 4 6 2 4 4 5 6 6 6 5 5 5 5 4 4 4 3 3 2 1 1 1 2 2 2 2 2 2 2 2 1 3 3 4 3 3 4 3 3 4 3 4 4 5
4 4 4 3 3 5 5 3 4 5 5 5 6 6 5 4 4 4 4 4 4 4 3 3 3 2 2 2 2 2 2 2 2 2 1 2 3 3 4 4 3 4 3 3 3 4 4 5 5
4 5 5 2 2 4 4 3 2 5 5 5 6 5 5 4 4 4 4 4 4 3 3 3 3 2 2 1 2 1 1 2 2 2 2 3 3 3 4 4 4 4 4 4 4 5 5 5 4
6 7 5 2 3 4 3 3 2 4 5 5 5 5 5 5 4 4 4 4 4 4 4 4 3 2 2 1 1 2 2 2 2 2 1 3 3 4 4 4 5 4 4 4 4 5 5 4 3
7 7 5 4 3 6 6 6 6 5 5 5 5 5 5 6 5 5 5 4 4 4 4 3 2 2 1 1 2 1 2 2 1 2 1 2 4 4 4 4 4 4 4 3 4 5 5 5 4
7 4 6 6 8 5 6 5 3 5 6 6 6 6 5 5 5 5 4 4 3 2 2 3 2 2 1 2 2 3 3 2 2 3 2 3 3 4 3 3 3 3 3 3 4 3 4 5 4
6 3 6 8 9 7 6 7 2 4 4 4 5 5 5 4 5 4 4 3 2 2 2 2 2 1 1 2 2 3 3 2 2 2 2 3 3 3 3 3 2 3 3 3 4 4 5 4 5
4 5 7 8 8 8 4 6 2 2 1 1 3 4 4 4 4 4 3 3 2 2 2 3 2 2 1 1 2 2 3 3 3 3 3 3 2 2 2 3 2 3 3 3 4 4 4 4 5
8 8 6 7 6 3 2 4 1 3 1 0 1 3 4 4 4 3 3 3 2 2 2 2 2 2 2 1 1 2 2 3 3 3 3 3 2 2 2 3 2 2 3 3 3 3 4 4 4
7 9 7 7 6 2 4 3 2 4 2 1 1 2 3 3 4 3 3 3 3 2 2 2 2 1 2 2 1 2 3 3 2 2 3 3 3 2 2 3 3 2 2 3 2 3 3 2 3
6 7 6 9 8 7 3 2 3 3 2 2 2 2 2 3 3 3 3 3 3 2 2 1 2 1 1 2 1 2 2 3 3 3 3 2 2 2 2 3 2 3 2 2 3 2 2 2 2
6 4 5 7 6 7 4 4 1 3 1 2 1 2 2 3 3 3 3 3 3 2 2 2 1 1 1 1 1 1 2 2 2 2 2 2 3 3 3 3 2 2 2 2 3 2 2 2 2
5 5 6 6 6 7 6 1 5 2 1 1 1 1 2 3 4 4 3 4 4 3 3 2 2 1 1 1 0 1 1 1 1 1 2 2 3 3 3 3 2 2 2 2 2 3 3 2 2
6 6 7 7 6 6 7 1 6 3 2 1 1 2 3 3 4 4 4 4 4 3 2 2 2 1 1 1 0 1 1 1 1 1 2 2 3 3 3 2 2 2 2 2 2 3 3 2 2
Wind_Direction
203 203 221 233 236 214 92 80 76 81 73 57 49 31 42 33 23 63 84 114 124 128 130 138 135 137 136 137 136 137 138 141 143 143 146 152 155 157 161 163 166 167 170 174 176 178 177 178 180
204 203 227 239 254 169 99 84 85 58 66 85 96 104 86 70 57 87 108 115 129 128 132 132 130 134 133 134 134 136 137 140 144 147 148 153 157 161 164 166 172 175 179 182 184 186 184 186 189
208 230 253 249 268 25 84 85 76 83 106 144 111 67 49 67 83 95 109 130 131 128 128 121 131 132 134 134 133 132 134 137 142 149 153 155 159 161 168 172 179 182 186 188 189 191 192 195 199
224 223 236 248 196 63 52 78 86 138 126 117 126 106 87 58 71 106 125 136 131 127 125 119 129 131 132 132 132 134 137 137 140 144 153 161 166 170 177 183 189 193 199 201 201 199 199 199 203
239 249 233 216 173 105 125 93 192 190 116 113 124 108 95 82 97 119 134 138 134 128 124 121 124 128 129 128 127 128 130 130 132 137 148 162 174 185 190 194 197 202 203 206 209 214 211 211 212
237 243 243 209 149 143 145 152 193 186 132 133 135 118 94 110 122 128 132 136 129 126 124 123 130 128 127 125 124 123 124 126 128 132 143 158 169 182 195 203 206 206 211 220 223 225 219 217 218
267 263 259 239 163 154 123 148 221 218 143 108 120 116 117 128 126 129 130 130 126 127 127 131 137 139 138 130 125 126 128 129 131 133 138 152 169 190 202 206 209 215 222 226 228 229 225 226 226
283 267 234 223 215 125 122 155 67 282 85 93 154 132 128 134 137 136 135 133 128 125 124 131 137 138 151 145 134 132 132 132 136 138 135 156 177 185 194 207 199 221 231 230 230 229 230 232 228
258 253 232 203 255 104 138 180 118 136 147 134 101 64 104 133 144 146 143 138 132 126 130 136 142 143 150 141 134 154 156 150 174 163 157 209 214 201 194 195 182 231 236 233 234 232 229 232 224
246 259 340 1 334 325 201 221 170 196 182 157 135 113 126 145 156 159 155 151 144 142 146 145 145 144 145 136 141 165 170 152 202 175 185 229 256 259 270 135 192 225 233 228 227 234 231 235 226
246 275 323 283 319 301 257 228 212 233 215 184 166 146 149 158 166 166 156 148 144 147 147 142 137 141 146 139 144 130 145 136 194 156 226 248 260 250 252 227 200 218 227 233 216 227 237 242 245
251 266 283 283 298 276 267 241 213 258 345 63 137 148 159 167 169 164 155 147 143 143 143 139 145 152 145 110 124 157 149 159 237 173 239 255 264 276 284 270 280 263 255 258 255 253 255 255 251
237 250 261 267 268 267 251 231 218 176 76 109 135 148 160 156 153 150 146 145 145 140 142 139 142 142 137 149 208 147 182 199 220 248 229 263 272 278 285 282 276 276 276 259 261 266 263 258 250
257 258 259 251 230 209 210 203 204 110 122 139 144 149 150 153 153 152 155 153 149 147 147 140 149 137 142 165 181 189 200 209 243 249 261 266 277 282 278 264 266 271 275 285 281 275 266 260 259
245 241 228 209 206 196 219 209 189 149 159 152 147 144 146 151 153 154 151 152 153 152 145 150 162 145 166 196 201 201 208 232 248 249 252 262 272 274 271 271 265 278 282 270 266 266 261 256 251
222 229 219 161 193 201 242 241 106 143 164 158 149 143 146 144 150 145 144 148 151 155 150 160 175 163 186 208 222 228 236 246 249 252 259 269 266 263 265 267 269 278 274 267 259 261 262 259 256
209 225 229 167 176 211 239 258 105 144 165 160 153 154 155 148 150 143 151 158 161 161 163 170 189 201 208 205 226 233 224 244 255 266 280 295 278 267 263 264 268 264 265 268 268 268 271 263 263
228 240 235 235 166 218 228 226 138 151 166 168 163 161 157 151 153 152 161 168 172 173 178 184 195 192 217 216 225 237 239 247 260 274 299 291 281 275 274 262 257 263 264 268 275 275 272 268 266
266 261 255 250 166 232 231 227 164 164 180 179 168 162 163 163 156 156 167 182 187 187 189 190 206 190 219 231 261 261 266 281 285 295 314 288 282 278 271 275 262 255 259 270 277 273 264 262 266
248 251 250 201 162 245 242 242 186 176 190 189 179 174 179 177 170 176 190 196 205 202 200 200 200 200 227 230 266 271 287 282 288 304 301 290 285 279 272 274 266 261 260 256 267 274 275 270 260
249 258 273 270 215 220 237 227 196 179 185 188 193 195 192 192 189 198 205 207 207 203 209 211 205 208 233 251 258 270 261 263 280 301 301 313 297 286 282 274 275 273 266 268 267 268 269 274 266
254 248 258 251 244 232 239 269 179 185 190 199 204 208 209 206 199 199 204 210 208 198 200 200 191 194 229 246 272 277 279 291 303 301 327 314 301 297 287 279 275 276 277 270 266 275 274 270 267
272 279 254 254 258 262 235 266 176 178 220 213 211 214 217 209 197 192 198 198 193 187 180 182 176 193 226 265 275 270 282 298 307 313 326 302 304 302 297 294 285 275 273 279 281 281 276 271 273
240 231 234 238 246 252 254 269 261 163 258 235 197 199 208 204 186 187 191 186 178 169 179 183 183 197 213 258 287 289 301 304 308 304 306 297 306 309 324 315 306 286 291 284 279 273 264 274 278
224 241 242 230 230 250 138 256 331 52 53 274 199 185 193 191 176 178 180 174 169 174 182 186 187 206 218 242 281 291 291 280 280 297 299 298 308 326 347 330 314 307 297 288 288 278 278 271 271
227 254 273 286 288 291 187 245 66 81 88 97 117 150 174 174 164 169 170 166 170 171 178 188 196 215 228 233 252 280 280 286 297 302 304 305 317 334 329 312 311 306 300 302 301 289 285 279 276
236 245 284 279 277 275 234 178 153 136 145 143 139 141 166 171 161 157 156 156 158 163 162 179 195 191 218 229 234 252 276 296 303 293 288 316 329 320 325 320 321 317 315 312 296 313 304 304 288
278 270 250 260 278 278 254 237 186 143 154 152 163 163 160 165 152 146 148 148 147 145 137 138 145 147 162 185 281 307 299 291 290 291 322 325 330 332 310 314 316 311 300 297 298 314 329 303 303
212 222 251 269 281 284 288 2 64 76 121 181 148 118 143 153 144 143 143 139 137 129 125 127 131 143 140 112 12 330 314 304 302 308 310 320 318 314 317 309 307 300 304 313 313 313 303 295 302
254 252 243 255 258 262 284 0 88 82 79 89 87 108 123 133 139 138 138 140 138 131 134 139 160 168 154 129 1 1 356 342 321 327 335 325 316 318 325 316 317 309 312 316 305 298 300 296 290